Regional Weather Roundup
Issued by NWS Charleston, SC

Current Version | Previous Version | Text Only | Print | Product List | Glossary Off
Versions: 1 2 3 4 5 6 7 8 9 10 11 12 13 14 15 16 17 18 19 20 21 22 23 24 25 26 27 28 29 30 31 32 33 34 35 36 37 38 39 40 41 42 43 44 45 46 47 48 49 50

000
ASUS42 KCHS 040327
RWRCHS

REGIONAL WEATHER ROUNDUP
NATIONAL WEATHER SERVICE CHARLESTON SC
1100 PM EDT SUN MAY 03 2015

NOTE: "FAIR" INDICATES FEW OR NO CLOUDS BELOW 12,000 FEET WITH NO
SIGNIFICANT WEATHER AND/OR OBSTRUCTIONS TO VISIBILITY.

NOT ALL STATIONS ARE QUALITY CONTROLLED BY THE NATIONAL
WEATHER SERVICE. USE DATA WITH CAUTION...ESPECIALLY
DEWPOINT OBSERVATIONS.

SCZ027-030-031-034>040-042>050-040400-
...SOUTHEAST SOUTH CAROLINA...

CITY           SKY/WX    TMP DP  RH WIND       PRES   REMARKS
N CHARLESTON   CLEAR     64  58  80 SE6       30.24R
WATERFRONT PRK   N/A     70 N/A N/A SE8         N/A
MOUNT PLEASANT FAIR      63  61  94 MISG      30.24S
PINOPOLIS      NOT AVBL
MONCKS CORNER  FAIR      64  59  82 CALM      30.24R
SUMMERVILLE    MOCLDY    64  59  82 SE3       30.24R
BEAUFORT MCAS  CLEAR     65  57  75 CALM      30.22R
BEAUFORT ARPT  FAIR      64  61  88 CALM      30.22S
HILTON HEAD IS CLEAR     64  61  88 S3        30.24R
WALTERBORO     CLEAR     61  55  82 E3        30.24R
ALLENDALE      FAIR      66  54  63 CALM      30.21R

...SOUTHERN MIDLANDS AND PEE DEE...

CITY           SKY/WX    TMP DP  RH WIND       PRES   REMARKS
GEORGETOWN     NOT AVBL
KINGSTREE      NOT AVBL
ORANGEBURG     CLEAR     65  53  65 S5        30.22R
BARNWELL       FAIR      66  54  63 S3        30.22R
AIKEN          FAIR      59  50  72 SE3       30.24R
MANNING        MOCLDY    61  52  72 CALM      30.23S
COLUMBIA       PTCLDY    66  54  65 SW5       30.19R
SUMTER         CLEAR     66  53  63 S5        30.20R
FLORENCE       CLEAR     65  57  75 S9        30.23R
MYRTLE BEACH   CLEAR     70  59  68 S9        30.26R
N MYRTLE BEACH CLEAR     67  60  78 S6        30.24R

$$

GAZ063-065-086>088-099>101-113>116-118-119-134>141-150-040400-
...SOUTHEAST GEORGIA...

CITY           SKY/WX    TMP DP  RH WIND       PRES   REMARKS
SAVANNAH ARPT  CLEAR     65  54  67 S3        30.22R
HUNTER AAF     CLEAR     63  58  83 S2        30.20R
FORT STEWART   CLEAR     61  54  76 CALM      30.20R
STATESBORO       N/A     60  54  78 CALM      30.22S
SYLVANIA       CLEAR     65  53  64 CALM      30.23R
CLAXTON        FAIR      59  55  88 CALM      30.22R

...CSRA...CENTRAL AND FAR SOUTHEAST GEORGIA...

CITY           SKY/WX    TMP DP  RH WIND       PRES   REMARKS
THOMSON        CLEAR     61  60  96 CALM      30.25R
AUGUSTA-BUSH   CLEAR     58  54  86 CALM      30.19R
AUGUSTA-DANIEL CLEAR     72  50  45 S3        30.20R
SWAINSBORO     NOT AVBL
VIDALIA        CLEAR     66  52  59 S5        30.22R
EASTMAN        FAIR      59  59 100 CALM      30.23R
HAZLEHURST     FAIR      69  51  54 S6        30.20S
ALMA           CLEAR     66  50  56 SE5       30.21R
WAYCROSS       CLEAR     70  55  59 SE7       30.22R
JESUP          FAIR      61  54  77 CALM      30.23R
BAXLEY         FAIR      68  50  52 SE3       30.21R
BRUNSWICK      CLEAR     59  52  77 CALM      30.23S
SAINT SIMONS   CLEAR     67  54  63 CALM      30.22R

$$

SCZ027-028-034-036>038-045-046-048>050-GAZ119-141-040400-
...LAKE AND SUPPLEMENTAL COASTAL OBSERVATIONS...

STATION/POSITION TIME  TEMP    WIND        PRES    WAVE   SWELL
                       AIR SEA DIR/SP/G            HT/PER HT/PER/DIR
                 (UTC) (F)     (DEG/KT/KT) (MB)    (FT/S) (FT/S/D)
UPR LAKE MARION  NOT AVBL
WINYAH BAY       0200   69     150/  5     1023.0
LAKE MURRAY      0200   69      CALM  /  1 1021.7R
ACE BASIN NERRS  NOT AVBL
FORT PULASKI     0200   70 70  170/  2/  5 1023.5R
SAPELO ISLAND    0300   62     140/  4     1023.0S

$$

ANZ835-935-AMZ111-154-330-350-352-354-370-450-454-472-040400-
...C-MAN AND BUOY OBSERVATIONS...

STATION/POSITION TIME  TEMP    WIND        PRES    WAVE   SWELL
                       AIR SEA DIR/SP/G            HT/PER HT/PER/DIR
                 (UTC) (F)     (DEG/KT/KT) (MB)    (FT/S) (FT/S/D)
BUOY 41004       0250   74 74  130/  8/ 10 1023.6R   2/10   2/10
BUOY 41008       0250   71 71  170/  6/  8 1023.5R   2/13   2/ 70/13
FOLLY BEACH CMAN 0300   70     150/  8/  9 1023.9R
CAPERS NEARSHORE NOT AVBL
FRIPP NEARSHORE  0200   71     180/  8/ 10 1022.5R


STATION/POSITION TIME  TEMP    WIND        PRES    WAVE   SWELL
                       AIR SEA DIR/SP/G            HT/PER HT/PER/DIR
                 (UTC) (F)     (DEG/KT/KT) (MB)    (FT/S) (FT/S/D)
5E ST. MARYS GA  0221      72                N/A     2/13   2/ 70/13
FRYING PAN BUOY  0250   73 73  170/ 10/ 12 1025.0R   4/13   3/110/13
BUOY 41025       0250   64 60  260/  6/  8 1023.8R   5/ 9   5/ 90/ 9
CAPE LOOKOUT NC  0300   67     210/  6/  7 1024.1R
BUOY 41002       0250   69 70   50/ 12/ 16 1024.5R   7/13   7/ 40/13
BUOY 41010       0220   73 78   60/ 12/ 16 1022.7R
ST AUGUSTINE FL  0300   72 72  100/  5/  6 1023.9R


$$


USA.gov is the U.S. government's official web portal to all federal, state and local government web resources and services.